This is the latest recevied weather packets stored in our database for station/object S51UL-6. If no packets are shown the sender has not sent any weather packets the latest 1 day(s).
| Time | Temp. | Humidity | Pressure | Rain* | Wind** | Luminosity | Snow |
|---|---|---|---|---|---|---|---|
| 1778107388 | 15° C | 73% | 1010.9 hPa | 0 mm | - | - | - |
| 1778106536 | 15° C | 73% | 1010.8 hPa | 0 mm | - | - | - |
| 1778106488 | 15° C | 73% | 1010.8 hPa | 0 mm | - | - | - |
| 1778105288 | 15° C | 72% | 1010.6 hPa | 0 mm | - | - | - |
| 1778104688 | 15° C | 72% | 1010.7 hPa | 0 mm | - | - | - |
| 1778102889 | 15° C | 72% | 1010.7 hPa | 0 mm | - | - | - |
| 1778101389 | 15.56° C | 71% | 1010.5 hPa | 0 mm | - | - | - |
| 1778101090 | 15.56° C | 71% | 1010.5 hPa | 0 mm | - | - | - |
| 1778099589 | 15.56° C | 71% | 1010.3 hPa | 0 mm | - | - | - |
| 1778098993 | 15.56° C | 71% | 1010.3 hPa | 0 mm | - | - | - |
| 1778096591 | 16.67° C | 69% | 1010.1 hPa | 0 mm | - | - | - |
| 1778094490 | 16.67° C | 68% | 1009.7 hPa | 0 mm | - | - | - |
| 1778094190 | 17.22° C | 68% | 1009.8 hPa | 0 mm | - | - | - |
| 1778093890 | 17.22° C | 67% | 1009.7 hPa | 0 mm | - | - | - |
| 1778093590 | 17.22° C | 67% | 1009.7 hPa | 0 mm | - | - | - |
| 1778090291 | 17.78° C | 65% | 1009.6 hPa | 0 mm | - | - | - |
| 1778088791 | 18.33° C | 64% | 1009.3 hPa | 0 mm | - | - | - |
| 1778088491 | 18.33° C | 63% | 1009.2 hPa | 0 mm | - | - | - |
| 1778087292 | 18.89° C | 62% | 1009.2 hPa | 0 mm | - | - | - |
| 1778084292 | 18.89° C | 61% | 1009.7 hPa | 0 mm | - | - | - |
| 1778083992 | 18.89° C | 61% | 1009.7 hPa | 0 mm | - | - | - |
| 1778083692 | 18.89° C | 61% | 1009.5 hPa | 0 mm | - | - | - |
| 1778083392 | 18.89° C | 61% | 1009.8 hPa | 0 mm | - | - | - |
| 1778083092 | 19.44° C | 60% | 1009.8 hPa | 0 mm | - | - | - |
| 1778081892 | 19.44° C | 59% | 1009.8 hPa | 0 mm | - | - | - |
* Rain latest hour (hover to see other rain measurements)
** Current wind speed in m/s (hover to see current wind gust speed)